[[{"header":{"parameterUnit":"m.s-1","parameterCategory":1,"la1":30.2991,"la2":30.254,"lo1":-89.0895,"lo2":-89.0444,"dy":0.0017,"dx":0.0017,"nx":28,"ny":28,"refTime":"2024-04-29T09:00:00:Z","depth":0,"parameterNumber":2,"parameterNumberName":"U-component_of_WINDS"},"data":[0,0,0,0,0,0,0,0,0,0,0,0,0,0,0,0,0,0,0,0,0,0,0,0,0,0,0,0,0,0,0,0,0,0,0,0,0,0,0,0,0,0,0,0,0,0,0,0,0,0,0,0,0,0,0,0,0,0,0.3478,0.3478,0,0.3554,0.3555,0.3556,0.3575,0.3575,0.3574,0.3574,0.3653,0.3655,0.3658,0,0,0,0,0,0,0,0,0,0,0,0,0,0.3347,0.335,0.3478,0.3479,0.348,0.3554,0.3555,0.3556,0.3575,0.3575,0.3574,0.3573,0.3652,0.3655,0.3658,0,0,0,0,0,0,0,0,0,0,0,0,0,0.3412,0.335,0.3477,0.3498,0.3501,0.3554,0.3555,0.3557,0.3575,0.3575,0.3574,0.3573,0.3651,0.3654,0.3658,0.3697,0,0,0.367,0.3672,0,0,0,0,0,0,0,0,0.3408,0.3417,0.3494,0.3497,0.35,0.3554,0.3538,0.3604,0.3576,0.3547,0.3574,0.3573,0.362,0.3627,0.3643,0.37,0.3704,0.367,0.3673,0.3674,0.3675,0,0,0,0,0,0,0,0.3404,0.3413,0.3508,0.3495,0.3499,0.3503,0.3512,0.3551,0.3587,0.3549,0.3551,0.356,0.3622,0.3639,0.3645,0.3705,0.367,0.3674,0.3676,0.3677,0.3797,0.3798,0,0,0,0,0,0,0.3396,0.341,0.3506,0.351,0.3451,0.3506,0.3516,0.3538,0.3587,0.3593,0.356,0.356,0.3633,0.364,0.3648,0.3695,0.3674,0.3678,0.368,0.3796,0.3797,0.3798,0,0,0,0,0,0,0.3393,0.3404,0.3502,0.346,0.3473,0.3509,0.3534,0.3539,0.3557,0.3595,0.3601,0.3571,0.3633,0.3642,0.3684,0.3698,0.368,0.3683,0.3795,0.3797,0.3798,0.3792,0,0,0,0,0,0,0.3389,0.3403,0.3418,0.3461,0.3475,0.3538,0.3535,0.3542,0.3563,0.3564,0.3607,0.3613,0.3633,0.3678,0.3688,0.3703,0.3686,0.3794,0.3796,0.3798,0.3791,0.3792,0.3794,0,0,0,0,0,0.3384,0.3413,0.3419,0.343,0.3495,0.3538,0.3547,0.3569,0.3564,0.358,0.3604,0.3612,0.3695,0.3682,0.3693,0.371,0.3793,0.3796,0.3797,0.379,0.3792,0.3794,0,0,0,0,0,0,0.3372,0.3419,0.3426,0.3469,0.35,0.3542,0.3562,0.3571,0.3603,0.3602,0.3628,0.3638,0.3678,0.3698,0.3683,0.375,0.3744,0.3749,0.3735,0.3737,0.3739,0.3733,0.3689,0,0,0,0,0,0.3374,0.3405,0.3445,0.348,0.3495,0.3525,0.3545,0.3559,0.3592,0.3605,0.3632,0.3664,0.3697,0.3718,0.3751,0.3794,0.3803,0.3811,0.3812,0.3814,0.3817,0.384,0.3844,0.3805,0.3805,0.3805,0,0,0.3379,0.3409,0.3427,0.3478,0.3503,0.3535,0.3536,0.357,0.3594,0.361,0.3651,0.3672,0.3709,0.3751,0.3771,0.377,0.383,0.3816,0.3817,0.382,0.3843,0.3847,0.385,0.3806,0.3806,0.3806,0,0,0.3404,0.343,0.3462,0.3487,0.3525,0.3545,0.3552,0.3593,0.3608,0.3649,0.3662,0.3691,0.3748,0.3773,0.3793,0.3828,0.3836,0.3838,0.3846,0.3869,0.3872,0.3875,0.3887,0.3891,0.3841,0.3841,0.3841,0,0.3405,0.3454,0.3477,0.351,0.3531,0.3548,0.3579,0.3603,0.3649,0.3664,0.3661,0.3733,0.3759,0.3807,0.3815,0.3831,0.384,0.3833,0.387,0.3873,0.3876,0.3887,0.3892,0.3841,0.3841,0.3841,0.3841,0,0.3453,0.3487,0.3508,0.3552,0.3576,0.3608,0.3636,0.3658,0.367,0.369,0.3732,0.3763,0.3803,0.3815,0.3827,0.3865,0.3863,0.3865,0.386,0.3879,0.389,0.3895,0.3841,0.3841,0.3841,0.3841,0,0,0.3473,0.3529,0.3536,0.3557,0.3599,0.3626,0.3658,0.3696,0.3714,0.3746,0.3774,0.3821,0.3823,0.3846,0.3862,0.3882,0.3906,0.3881,0.3882,0.3884,0.3949,0.3947,0.3952,0.3912,0.3913,0.3913,0.3946,0,0.3503,0.3562,0.3583,0.3632,0.3663,0.3678,0.3707,0.3736,0.3756,0.3785,0.3807,0.384,0.384,0.3854,0.3875,0.3899,0.3919,0.3897,0.3938,0.3939,0.3928,0.3958,0.3956,0.3984,0.395,0.3951,0.3952,0,0.3546,0.3578,0.3629,0.3668,0.3682,0.3707,0.3743,0.3771,0.3804,0.3817,0.3843,0.3857,0.3891,0.3884,0.3932,0.3916,0.3934,0.3949,0.395,0.3955,0.3946,0.3962,0.3994,0.3998,0.3959,0.3958,0.3958,0,0.3554,0.361,0.3648,0.3665,0.3711,0.3728,0.3748,0.3781,0.3803,0.3834,0.3848,0.3884,0.3903,0.393,0.3953,0.3946,0.3999,0.3994,0.401,0.401,0.4021,0.402,0.4055,0.4033,0.4033,0.4033,0.4033,0,0.3585,0.3616,0.3652,0.3676,0.371,0.3734,0.3768,0.3789,0.3818,0.3846,0.3862,0.3887,0.3916,0.3945,0.3963,0.4,0.4008,0.402,0.4024,0.4018,0.4017,0.403,0.4029,0.4034,0.4034,0.4033,0.4033,0,0.36,0.3626,0.3668,0.3708,0.3719,0.3743,0.3777,0.38,0.3821,0.3855,0.3865,0.3897,0.3932,0.3958,0.4003,0.4015,0.4054,0.4059,0.4043,0.4045,0.406,0.4058,0.4105,0.4113,0.4085,0.4086,0.4086,0,0.3618,0.3642,0.3685,0.3705,0.3724,0.3756,0.3778,0.3802,0.3824,0.3864,0.3882,0.3918,0.3948,0.4004,0.4031,0.4066,0.4071,0.4085,0.4076,0.4069,0.4071,0.4069,0.4071,0.4086,0.4086,0.4087,0.4087,0,0.3647,0.3659,0.369,0.3725,0.375,0.3779,0.3808,0.3823,0.3853,0.3877,0.3913,0.3936,0.3982,0.4018,0.4055,0.4076,0.4086,0.4089,0.4095,0.4089,0.4078,0.4084,0.4046,0.4088,0.4088,0.4088,0.4088,0.4088,0.3664,0.3686,0.3719,0.3753,0.3778,0.3804,0.3828,0.3851,0.3881,0.3921,0.3933,0.397,0.4003,0.4054,0.4075,0.4105,0.4104,0.4112,0.4114,0.4116,0.4115,0.4074,0.4112,0.4112,0.4112,0.4112,0.4112,0,0.3693,0.3716,0.3746,0.3787,0.3813,0.382,0.3853,0.3874,0.3907,0.3936,0.3966,0.4007,0.4041,0.4071,0.4107,0.4124,0.413,0.4133,0.4132,0.4136,0.4114,0.4105,0.4128,0.4128,0.4128,0.4128,0.4128,0.4128,0.3712,0.3749,0.3764,0.3814,0.3836,0.3872,0.389,0.3914,0.3938,0.3983,0.4012,0.4031,0.4061,0.4099,0.4131,0.4139,0.4151,0.4152,0.4161,0.414,0.4138,0.4136,0.4128,0.4155,0.4155,0.4181,0.4182,0.4182]},{"header":{"parameterUnit":"m.s-1","parameterCategory":1,"la1":30.2991,"la2":30.254,"lo1":-89.0895,"lo2":-89.0444,"dy":0.0017,"dx":0.0017,"nx":28,"ny":28,"refTime":"2024-04-29T09:00:00:Z","depth":0,"parameterNumber":3,"parameterNumberName":"V-component_of_WINDS"},"data":[0,0,0,0,0,0,0,0,0,0,0,0,0,0,0,0,0,0,0,0,0,0,0,0,0,0,0,0,0,0,0,0,0,0,0,0,0,0,0,0,0,0,0,0,0,0,0,0,0,0,0,0,0,0,0,0,0,0,2.2987,2.2988,0,2.3019,2.3019,2.302,2.3003,2.3002,2.3002,2.3001,2.3031,2.3032,2.3034,0,0,0,0,0,0,0,0,0,0,0,0,0,2.291,2.2912,2.2987,2.2988,2.2988,2.3019,2.3019,2.302,2.3003,2.3002,2.3001,2.3,2.303,2.3032,2.3034,0,0,0,0,0,0,0,0,0,0,0,0,0,2.2943,2.2912,2.2987,2.2984,2.2984,2.3019,2.3019,2.302,2.3004,2.3002,2.3001,2.3,2.303,2.3032,2.3034,2.3074,0,0,2.3042,2.3043,0,0,0,0,0,0,0,0,2.2941,2.2946,2.2984,2.2984,2.2984,2.3006,2.3003,2.3038,2.3004,2.2996,2.3001,2.2999,2.3023,2.3026,2.3035,2.3075,2.3077,2.3042,2.3043,2.3044,2.3045,0,0,0,0,0,0,0,2.2939,2.2944,2.3,2.2984,2.2984,2.298,2.2983,2.301,2.3016,2.2997,2.2995,2.3,2.3023,2.3033,2.3035,2.3077,2.3042,2.3044,2.3045,2.3046,2.3152,2.3154,0,0,0,0,0,0,2.2937,2.2943,2.2999,2.3001,2.2959,2.2982,2.2986,2.3,2.3016,2.3017,2.3001,2.2999,2.3029,2.3033,2.3036,2.3084,2.3044,2.3046,2.3048,2.3151,2.3153,2.3154,0,0,0,0,0,0,2.2936,2.2942,2.2997,2.2971,2.2978,2.2985,2.3001,2.3001,2.3011,2.3019,2.302,2.3009,2.3028,2.3033,2.3065,2.3085,2.3047,2.305,2.3149,2.3152,2.3153,2.318,0,0,0,0,0,0,2.2933,2.2942,2.2957,2.2972,2.298,2.3026,2.3002,2.3003,2.3015,2.3013,2.3027,2.3028,2.3028,2.3062,2.3067,2.3088,2.3051,2.3148,2.315,2.3153,2.3178,2.3183,2.3188,0,0,0,0,0,2.2931,2.2963,2.2958,2.2965,2.2999,2.3027,2.3032,2.3031,2.3017,2.3032,2.3038,2.3028,2.3082,2.3065,2.3071,2.3093,2.3146,2.315,2.3153,2.3176,2.3182,2.3188,0,0,0,0,0,0,2.295,2.2965,2.296,2.2998,2.3012,2.3025,2.3044,2.3038,2.3055,2.3052,2.305,2.3053,2.3087,2.3093,2.3074,2.3132,2.3112,2.3116,2.3127,2.3133,2.3138,2.3136,2.3053,0,0,0,0,0,2.2959,2.2981,2.2993,2.3025,2.3032,2.3037,2.3049,2.3048,2.3061,2.3067,2.3075,2.3088,2.3108,2.3121,2.314,2.3179,2.3181,2.3196,2.3201,2.3205,2.3209,2.3231,2.3238,2.3165,2.3165,2.3164,0,0,2.2977,2.2988,2.3002,2.3029,2.304,2.3062,2.3042,2.3067,2.3083,2.307,2.3102,2.3108,2.3122,2.3158,2.3174,2.3164,2.323,2.3209,2.3213,2.3214,2.3235,2.3242,2.3248,2.3167,2.3166,2.3166,0,0,2.3021,2.3032,2.3061,2.3072,2.3088,2.3091,2.3098,2.3112,2.3116,2.3148,2.3139,2.3158,2.3192,2.3203,2.3213,2.3263,2.3255,2.3269,2.3295,2.3316,2.3322,2.3327,2.3345,2.3352,2.3273,2.3273,2.3273,0,2.3042,2.3076,2.3076,2.3102,2.3114,2.3104,2.3133,2.3143,2.3165,2.3173,2.3162,2.3206,2.3215,2.3253,2.3265,2.3274,2.3281,2.3267,2.3321,2.3327,2.3331,2.3349,2.3355,2.3275,2.3275,2.3274,2.3274,0,2.31,2.3125,2.3146,2.3168,2.3182,2.321,2.3213,2.3227,2.3225,2.3229,2.3261,2.3271,2.3293,2.3301,2.3298,2.334,2.3333,2.3322,2.3301,2.334,2.3356,2.3363,2.3277,2.3277,2.3276,2.3276,0,0,2.3158,2.318,2.3188,2.3198,2.3216,2.3234,2.3261,2.3282,2.3295,2.331,2.3332,2.3362,2.3352,2.3363,2.3362,2.338,2.3419,2.3366,2.3367,2.3376,2.3466,2.3475,2.3482,2.3414,2.3415,2.3416,2.3465,0,2.3204,2.3252,2.3252,2.3296,2.3318,2.331,2.3333,2.3346,2.3351,2.337,2.3374,2.3396,2.338,2.3387,2.3405,2.3411,2.3437,2.3407,2.3434,2.3435,2.3431,2.3491,2.35,2.3545,2.3471,2.3472,2.3473,0,2.3264,2.3283,2.3329,2.3344,2.3354,2.3375,2.3395,2.3413,2.3428,2.343,2.3443,2.3439,2.3466,2.3444,2.3481,2.3461,2.3472,2.3476,2.3478,2.348,2.3457,2.3495,2.356,2.3567,2.3483,2.3482,2.3481,0,2.3302,2.3338,2.3371,2.338,2.3398,2.3413,2.3422,2.3435,2.3448,2.3466,2.3474,2.3494,2.3505,2.352,2.3521,2.3505,2.3558,2.3537,2.356,2.356,2.3572,2.3571,2.364,2.3579,2.3578,2.3578,2.3578,0,2.3354,2.3383,2.3388,2.3408,2.344,2.344,2.3472,2.3478,2.3491,2.3511,2.3505,2.3524,2.3524,2.3544,2.3544,2.3575,2.358,2.3582,2.3582,2.3583,2.3583,2.359,2.3587,2.358,2.358,2.3579,2.3579,0,2.3402,2.3407,2.3442,2.3457,2.3461,2.3484,2.3496,2.3515,2.352,2.3546,2.3552,2.3559,2.3582,2.3584,2.361,2.3611,2.3648,2.3644,2.3643,2.3643,2.3667,2.3664,2.3742,2.3753,2.3685,2.3685,2.3686,0,2.3435,2.3457,2.3475,2.3489,2.3498,2.3521,2.3534,2.3535,2.355,2.3568,2.3585,2.3607,2.3626,2.3663,2.3669,2.3689,2.3686,2.3712,2.3689,2.369,2.3687,2.3686,2.3688,2.3717,2.3717,2.3718,2.3719,0,2.3493,2.3495,2.3515,2.3537,2.3554,2.3571,2.3586,2.3598,2.3601,2.3617,2.3641,2.3656,2.3683,2.3705,2.3726,2.3733,2.3727,2.3726,2.3732,2.3734,2.3733,2.3734,2.3656,2.3724,2.3723,2.3723,2.3723,2.3723,2.3535,2.3554,2.357,2.3593,2.3606,2.3621,2.364,2.3647,2.3667,2.369,2.3689,2.3716,2.373,2.3756,2.3765,2.3786,2.3777,2.3787,2.3789,2.3791,2.3794,2.3729,2.3789,2.3789,2.3789,2.3789,2.3789,0,2.3593,2.3603,2.3625,2.3648,2.3666,2.3659,2.3676,2.3691,2.3715,2.3729,2.3748,2.3776,2.3797,2.3806,2.3827,2.3842,2.384,2.3848,2.3847,2.3849,2.38,2.3793,2.3849,2.3849,2.3849,2.3849,2.3849,2.3849,2.3626,2.3659,2.3662,2.3701,2.371,2.3737,2.3748,2.3761,2.3773,2.3804,2.3823,2.3829,2.3841,2.3863,2.3883,2.3885,2.3893,2.3903,2.3903,2.3858,2.3852,2.3846,2.3839,2.3904,2.3904,2.395,2.395,2.395]}]]